| time (UTC) | temp C | wind direction | speed KPH | gust KPH | rain 1hr cm | rain 24hr cm | rain mn cm | humidity % | barometer mb |
| 20260505111507 | 13 | 13 | 6.4 | 33.8 | 0.00 | 0.00 | 0.00 | 82 | 1007.9 |
| 20260505101506 | 17 | 307 | 1.6 | 8.0 | 0.00 | 0.00 | 0.00 | 78 | 1007.3 |
| 20260505100008 | 16 | 313 | 1.6 | 3.2 | 0.00 | 0.00 | 0.00 | 78 | 1006.5 |
| 20260505094507 | 16 | 158 | 0.0 | 1.6 | 0.00 | 0.00 | 0.00 | 77 | 1005.1 |
| 20260505093015 | 16 | 147 | 0.0 | 3.2 | 0.00 | 0.00 | 0.00 | 77 | 1004.6 |
| 20260505091506 | 16 | 124 | 0.0 | 0.0 | 0.00 | 0.00 | 0.00 | 78 | 1005.3 |
| 20260505084511 | 16 | 160 | 0.0 | 0.0 | 0.00 | 0.00 | 0.00 | 78 | 1006.2 |
| 20260505083009 | 16 | 135 | 0.0 | 0.0 | 0.00 | 0.00 | 0.00 | 78 | 1005.9 |
| 20260505081512 | 16 | 135 | 0.0 | 0.0 | 0.00 | 0.00 | 0.00 | 78 | 1006.0 |
| 20260505080009 | 16 | 135 | 0.0 | 0.0 | 0.00 | 0.00 | 0.00 | 78 | 1006.1 |
| 20260505074509 | 16 | 135 | 0.0 | 0.0 | 0.00 | 0.00 | 0.00 | 76 | 1006.2 |
| 20260505073012 | 17 | 135 | 0.0 | 0.0 | 0.00 | 0.00 | 0.00 | 76 | 1006.5 |
| 20260505071512 | 17 | 205 | 0.0 | 0.0 | 0.00 | 0.00 | 0.00 | 74 | 1006.9 |
| 20260505070016 | 17 | 162 | 0.0 | 0.0 | 0.00 | 0.00 | 0.00 | 74 | 1006.9 |
| 20260505064514 | 17 | 141 | 0.0 | 0.0 | 0.00 | 0.00 | 0.00 | 72 | 1006.8 |
| 20260505063014 | 17 | 144 | 0.0 | 14.5 | 0.00 | 0.00 | 0.00 | 72 | 1006.2 |
| 20260505061515 | 17 | 153 | 0.0 | 14.5 | 0.00 | 0.00 | 0.00 | 72 | 1005.9 |
| 20260505060020 | 17 | 114 | 0.0 | 8.0 | 0.00 | 0.00 | 0.00 | 72 | 1006.1 |
| 20260505054516 | 17 | 223 | 0.0 | 4.8 | 0.00 | 0.00 | 0.00 | 72 | 1006.6 |
| 20260505053014 | 17 | 99 | 0.0 | 1.6 | 0.00 | 0.00 | 0.00 | 71 | 1006.4 |
| 20260505051517 | 18 | 153 | 0.0 | 6.4 | 0.00 | 0.00 | 0.00 | 70 | 1006.5 |
| 20260505041516 | 18 | 139 | 0.0 | 9.7 | 0.00 | 0.00 | 0.00 | 67 | 1007.1 |
| 20260505040022 | 19 | 107 | 1.6 | 11.3 | 0.00 | 0.00 | 0.00 | 66 | 1007.2 |
| 20260505034520 | 19 | 214 | 1.6 | 11.3 | 0.00 | 0.00 | 0.00 | 66 | 1007.5 |
| 20260505033016 | 19 | 163 | 0.0 | 4.8 | 0.00 | 0.00 | 0.00 | 66 | 1007.5 |
| 20260505031511 | 19 | 88 | 3.2 | 9.7 | 0.00 | 0.00 | 0.00 | 64 | 1007.4 |
| 20260505030026 | 20 | 146 | 0.0 | 6.4 | 0.00 | 0.00 | 0.00 | 64 | 1007.3 |
| 20260505024522 | 20 | 117 | 0.0 | 6.4 | 0.00 | 0.00 | 0.00 | 64 | 1007.0 |
| 20260505023023 | 20 | 217 | 0.0 | 4.8 | 0.00 | 0.00 | 0.00 | 64 | 1006.9 |
| 20260505021512 | 20 | 167 | 0.0 | 1.6 | 0.00 | 0.00 | 0.00 | 63 | 1006.6 |
| 20260505020014 | 20 | 167 | 0.0 | 3.2 | 0.00 | 0.00 | 0.00 | 61 | 1006.2 |
| 20260505014519 | 20 | 143 | 0.0 | 3.2 | 0.00 | 0.00 | 0.00 | 61 | 1006.0 |
| 20260505013025 | 21 | 165 | 0.0 | 6.4 | 0.00 | 0.00 | 0.00 | 59 | 1005.9 |
| 20260505011526 | 21 | 142 | 0.0 | 3.2 | 0.00 | 0.00 | 0.00 | 59 | 1005.6 |
| 20260505010025 | 21 | 125 | 0.0 | 0.0 | 0.00 | 0.00 | 0.00 | 57 | 1005.4 |
| 20260505004534 | 23 | 169 | 0.0 | 4.8 | 0.00 | 0.00 | 0.00 | 50 | 1005.4 |
| 20260505003022 | 23 | 211 | 0.0 | 14.5 | 0.00 | 0.00 | 0.00 | 48 | 1005.4 |
| 20260505001524 | 24 | 221 | 1.6 | 11.3 | 0.00 | 0.00 | 0.00 | 47 | 1005.5 |
| 20260505000017 | 25 | 231 | 1.6 | 12.9 | 0.00 | 0.00 | 0.00 | 46 | 1005.4 |
| 20260504234525 | 25 | 231 | 3.2 | 17.7 | 0.00 | 0.00 | 0.00 | 46 | 1005.4 |
| 20260504233018 | 26 | 169 | 1.6 | 8.0 | 0.00 | 0.00 | 0.00 | 48 | 1005.5 |
| 20260504231516 | 26 | 149 | 0.0 | 4.8 | 0.00 | 0.00 | 0.00 | 48 | 1005.5 |
| 20260504230011 | 26 | 142 | 3.2 | 30.6 | 0.00 | 0.00 | 0.00 | 44 | 1005.6 |
| 20260504224512 | 26 | 152 | 0.0 | 11.3 | 0.00 | 0.00 | 0.00 | 47 | 1005.7 |
| 20260504223018 | 26 | 251 | 3.2 | 22.5 | 0.00 | 0.00 | 0.00 | 43 | 1005.7 |
| 20260504221524 | 26 | 213 | 3.2 | 20.9 | 0.00 | 0.00 | 0.00 | 44 | 1005.5 |
| 20260504220004 | 27 | 191 | 3.2 | 14.5 | 0.00 | 0.00 | 0.00 | 44 | 1005.7 |
| 20260504214516 | 27 | 221 | 3.2 | 30.6 | 0.00 | 0.00 | 0.00 | 45 | 1005.7 |
| 20260504213015 | 27 | 226 | 3.2 | 19.3 | 0.00 | 0.00 | 0.00 | 44 | 1005.8 |
| 20260504211519 | 26 | 97 | 4.8 | 25.7 | 0.00 | 0.00 | 0.00 | 41 | 1005.8 |
| 20260504210029 | 27 | 275 | 9.7 | 22.5 | 0.00 | 0.00 | 0.00 | 40 | 1006.0 |
| 20260504204511 | 27 | 210 | 6.4 | 24.1 | 0.00 | 0.00 | 0.00 | 41 | 1006.3 |
| 20260504203014 | 27 | 257 | 4.8 | 19.3 | 0.00 | 0.00 | 0.00 | 42 | 1006.4 |
| 20260504201518 | 27 | 25 | 6.4 | 24.1 | 0.00 | 0.00 | 0.00 | 41 | 1006.7 |
| 20260504200029 | 26 | 201 | 4.8 | 27.4 | 0.00 | 0.00 | 0.00 | 44 | 1006.8 |
| 20260504194525 | 26 | 221 | 8.0 | 24.1 | 0.00 | 0.00 | 0.00 | 43 | 1006.8 |
| 20260504193020 | 27 | 267 | 6.4 | 25.7 | 0.00 | 0.00 | 0.00 | 45 | 1006.9 |
| 20260504191516 | 26 | 164 | 3.2 | 14.5 | 0.00 | 0.00 | 0.00 | 48 | 1007.3 |
| 20260504190017 | 26 | 183 | 8.0 | 20.9 | 0.00 | 0.00 | 0.00 | 44 | 1007.4 |
| 20260504184521 | 26 | 272 | 4.8 | 22.5 | 0.00 | 0.00 | 0.00 | 46 | 1007.4 |
| 20260504183028 | 26 | 141 | 8.0 | 24.1 | 0.00 | 0.00 | 0.00 | 45 | 1007.4 |
| 20260504181526 | 26 | 118 | 11.3 | 29.0 | 0.00 | 0.00 | 0.00 | 45 | 1007.4 |
| 20260504180018 | 26 | 184 | 6.4 | 20.9 | 0.00 | 0.00 | 0.00 | 48 | 1007.2 |
| 20260504174522 | 26 | 221 | 6.4 | 19.3 | 0.00 | 0.00 | 0.00 | 49 | 1007.5 |
| 20260504173028 | 25 | 236 | 9.7 | 27.4 | 0.00 | 0.00 | 0.00 | 45 | 1007.6 |
| 20260504171539 | 25 | 153 | 6.4 | 20.9 | 0.00 | 0.00 | 0.00 | 48 | 1007.6 |